Location: *
(61.5000°S, 157.1667°W)
Time: 10:52:53
(UTC+00:00)

Daily predictions for brighter satellites

Satellite Brightness Start Highest point End
(mag) Time Altitude Azimuth Time Altitude Azimuth Time Altitude Azimuth
Cosmos 2263 Rocket 4.3 12:02:15 10° SW 12:03:19 16° SW 12:03:19 16° SW
Cosmos 1697 Rocket 3.4 12:10:27 48° ESE 12:10:27 48° ESE 12:14:41 10° SE
ADEOS II 3.7 12:13:17 27° SW 12:13:17 27° SW 12:15:46 10° SSW
Cosmos 841 Rocket 4.4 12:21:17 45° S 12:21:17 45° S 12:25:05 10° SSE
Resurs 1-4 Rocket 4.3 12:24:35 16° SW 12:24:35 16° SW 12:25:59 10° SSW
Meteor 2-4 Rocket 4.3 12:16:41 10° SSW 12:21:05 55° S 12:21:05 55° S
IDEFIX/ARIANE 42P 3.4 12:26:51 46° SSW 12:26:51 46° SSW 12:30:35 10° SSW
SL-16 R/B 3.7 12:27:05 26° ENE 12:27:19 26° ENE 12:31:58 10° SE
Cosmos 2360 Rocket 4.4 12:30:15 13° ENE 12:32:10 16° E 12:35:26 10° ESE
ALOS 4.5 12:31:12 10° ENE 12:34:59 24° SE 12:38:48 10° S
Cosmos 2322 Rocket 3.7 12:35:26 25° ENE 12:35:59 26° ENE 12:40:35 10° SE
Cosmos 2061 Rocket 4.3 12:36:59 60° SW 12:36:59 60° SW 12:43:01 10° SSE
USA 229 DEB 4.1 12:39:13 48° NE 12:39:13 48° NE 12:43:50 10° NE
USA 229 4.1 12:39:15 49° NE 12:39:15 49° NE 12:43:58 10° NE
ARIANE 5 R/B 4.3 12:40:08 23° SW 12:40:08 23° SW 12:42:13 10° SSW
Cosmos 1656 4.0 12:38:32 59° SSE 12:38:32 59° SSE 12:43:09 10° SE
Cosmos 1980 Rocket 2.6 12:38:48 58° E 12:38:48 58° E 12:43:50 10° SE
NOSS 3-4 (A) 3.8 12:44:34 74° NW 12:45:23 85° NNE 12:52:48 10° ESE
NOSS 3-4 (C) 3.8 12:44:41 74° NW 12:45:30 85° NNE 12:52:55 10° ESE
CZ-2D R/B 4.4 12:49:28 12° SW 12:49:28 12° SW 12:50:11 10° SW
CZ-2C R/B 3.0 12:46:42 58° ESE 12:46:42 58° ESE 12:51:45 10° SSW
NOSS 3-1 (A) 3.5 12:47:36 75° NE 12:47:36 75° NE 12:53:07 10° ENE
ADEOS 3.8 12:49:24 67° SSE 12:49:24 67° SSE 12:54:13 10° SSW
ATLAS CENTAUR R/B 3.8 12:50:48 18° E 12:50:48 18° E 12:52:44 10° ESE
Cosmos 2278 Rocket 3.0 12:48:12 10° SW 12:53:48 50° SSE 12:59:22 10° ENE
H-2A R/B 4.1 12:55:05 31° ESE 12:55:33 32° SE 12:59:15 10° S
Cosmos 2360 4.2 12:57:52 80° ESE 12:57:52 80° ESE 13:03:24 10° SE
GEOS 3 Rocket 3.9 12:55:23 10° ESE 13:00:32 61° S 13:00:44 61° SSW
Cosmos 1461 4.1 13:04:44 42° SE 13:04:44 42° SE 13:07:39 10° ESE
Cosmos 2278 3.7 13:04:31 85° SSE 13:04:31 85° SSE 13:10:11 10° SE
Cosmos 1943 Rocket 3.7 13:01:43 18° SW 13:05:16 33° S 13:10:25 10° ESE
Cosmos 2233 Rocket 4.0 13:05:44 67° WSW 13:05:44 67° WSW 13:11:53 10° SSE
Meteor 1-25 Rocket 4.3 13:07:14 70° SW 13:07:14 70° SW 13:12:48 10° SSE
Cosmos 2056 Rocket 3.7 13:04:26 10° SSW 13:09:55 72° SE 13:15:24 10° NE
USA 215 4.0 13:05:21 10° NE 13:09:31 36° NNE 13:09:31 36° NNE
Meteor 1-13 Rocket 4.4 13:06:03 10° SSW 13:11:35 69° WSW 13:11:35 69° WSW
Cosmos 1725 Rocket 4.4 13:12:56 47° WSW 13:12:56 47° WSW 13:18:52 10° S
Cosmos 1733 Rocket 4.0 13:13:04 45° E 13:13:04 45° E 13:17:23 10° SSE
Cosmos 2369 Rocket 3.7 13:10:18 19° SW 13:13:36 32° S 13:18:43 10° ESE
Meteor 2-11 Rocket 4.4 13:13:12 67° NNE 13:14:03 81° ENE 13:20:18 10° SSE
ATLAS 2AS CENTAUR R/B 2.3 13:14:07 72° W 13:14:48 82° SSW 13:21:20 10° ESE
Meteor 1-11 Rocket 4.4 13:15:12 37° NE 13:17:01 51° E 13:22:34 10° SSE
Cosmos 1066 Rocket 4.1 13:17:25 10° SSW 13:23:01 85° ESE 13:24:13 58° NNE
Cosmos 1536 3.9 13:24:04 43° E 13:24:04 43° E 13:27:49 10° SSE
Cosmos 405 Rocket 4.2 13:26:09 35° ENE 13:26:30 35° E 13:30:20 10° SSE
SL-16 R/B 2.8 13:22:00 10° SSE 13:28:20 66° ENE 13:30:32 42° N
RESURS DK-1 3.3 13:29:21 45° S 13:29:21 45° S 13:32:39 10° SE
Cosmos 783 Rocket 4.4 13:29:58 87° NNW 13:30:03 90° NNW 13:35:24 10° SE
Cosmos 371 Rocket 4.4 13:25:41 10° SSW 13:30:27 44° SE 13:35:11 10° ENE
IRAS Rocket 4.2 13:26:08 10° SSE 13:31:40 64° WSW 13:31:50 63° WSW
Cosmos 1464 Rocket 3.9 13:31:38 59° NNW 13:33:01 88° WSW 13:39:32 10° SSE
MSX 4.3 13:35:24 45° WSW 13:35:24 45° WSW 13:40:00 10° SSW
CZ-4C R/B 3.7 13:31:31 29° N 13:34:19 39° NE 13:40:22 10° ESE
Meteor 1-14 Rocket 4.1 13:34:39 67° W 13:34:49 67° WSW 13:40:28 10° SSE
Cosmos 1500 4.2 13:36:13 45° SSE 13:36:13 45° SSE 13:39:04 10° SSE
Cosmos 1484 Rocket 3.5 13:37:03 52° ESE 13:37:03 52° ESE 13:40:47 10° S
Meteor 1-23 Rocket 4.1 13:31:39 10° SSW 13:37:20 78° WNW 13:38:03 67° NNW
Cosmos 1092 Rocket 3.9 13:32:22 10° SSW 13:38:45 82° W 13:41:26 38° N
CZ-4B R/B 3.4 13:38:45 44° NE 13:39:56 64° ESE 13:44:09 10° SSW
MOZ.5/SAFIR/RUBIN 5/SL-8 3.7 13:38:26 10° SSE 13:43:12 80° WSW 13:43:12 80° WSW
Cosmos 1975 Rocket 3.7 13:38:57 10° S 13:43:22 56° ESE 13:46:51 15° NE
Cosmos 1452 Rocket 4.0 13:40:03 10° SSW 13:45:24 61° SE 13:50:40 10° NE
H-2A R/B 4.1 13:41:48 10° SSE 13:45:48 28° E 13:49:39 10° NNE
Cosmos 1869 Rocket 4.3 13:47:01 44° SSW 13:47:01 44° SSW 13:50:37 10° S
Cosmos 2369 4.0 13:45:27 49° WSW 13:46:24 54° SW 13:52:07 10° SE
COSMOS 2455 3.3 13:46:24 41° WSW 13:48:12 55° SSW 13:54:12 10° ESE
Cosmos 2026 Rocket 4.0 13:44:11 10° SSW 13:50:41 87° WNW 13:56:46 11° N
ADEOS II 4.4 13:54:13 10° SW 13:54:13 10° SW 13:54:19 10° SW
Okean 2 3.8 13:48:20 10° SSW 13:52:37 64° ESE 13:55:02 25° NNE
Nadezhda 4 Rocket 4.1 13:47:06 10° SSW 13:53:07 51° W 13:53:25 51° WNW
Cosmos 1697 Rocket 3.1 13:52:11 45° WSW 13:53:16 51° SSW 13:58:50 10° SE
SL-08 R/B 4.4 13:51:03 10° SSE 13:55:35 43° E 13:58:29 20° NNE
Cosmos 1538 Rocket 4.1 13:54:34 53° N 13:55:50 75° ENE 14:01:14 10° SE
Okean O Rocket 3.2 13:51:47 10° ENE 13:55:55 36° ESE 14:00:05 10° S
METEOR-M 4.4 13:50:37 10° NNE 13:56:01 72° ESE 14:01:29 10° SSW
Cosmos 1428 Rocket 4.4 13:54:44 10° SSW 14:01:02 82° WNW 14:07:13 10° N
Cosmos 1666 2.7 14:04:01 82° ESE 14:04:01 82° ESE 14:07:56 10° SSE
Cosmos 1513 Rocket 4.5 14:02:47 49° WNW 14:04:12 62° WSW 14:10:21 10° SSE
Cosmos 773 Rocket 4.0 14:03:57 58° NW 14:05:01 80° SW 14:10:26 10° SE
FENGYUN 3A 3.7 13:59:53 10° NNE 14:05:21 83° ESE 14:10:53 10° SSW
IDEFIX/ARIANE 42P 4.2 14:07:40 20° SW 14:07:40 20° SW 14:09:56 10° SSW
Cosmos 1634 Rocket 4.3 14:01:53 16° N 14:07:03 67° E 14:13:25 10° SSE
Cosmos 1743 3.8 14:05:47 27° NNE 14:07:29 43° E 14:11:15 10° SSE
CZ-4C R/B 4.0 14:03:07 10° S 14:07:15 47° SW 14:07:15 47° SW
SL-16 R/B 2.2 14:08:58 46° NNW 14:10:47 82° NE 14:16:34 10° SE
UNK 3.7 14:07:04 10° SSE 14:11:42 62° WSW 14:12:07 59° W
ALOS 2.3 14:07:08 10° NNE 14:11:54 85° ESE 14:16:42 10° SSW
Cosmos 2360 Rocket 2.8 14:12:03 27° N 14:15:01 54° ENE 14:20:37 10° SE
Cosmos 1842 3.3 14:14:34 10° SSW 14:18:35 77° ESE 14:22:32 10° NNE
Cosmos 2322 Rocket 2.2 14:17:15 41° NNW 14:19:23 82° NE 14:25:09 10° SE
ERS-2 2.4 14:16:21 10° SSE 14:20:08 66° ENE 14:21:00 48° NNE
Cosmos 1624 Rocket 4.1 14:15:10 10° SW 14:20:19 49° WNW 14:25:23 10° N
Cosmos 2084 Rocket 3.3 14:19:48 62° W 14:20:30 84° NNW 14:24:48 10° ENE
CZ-3A R/B 3.7 14:18:44 34° NW 14:21:09 53° NNE 14:28:15 10° E
Cosmos 1025 Rocket 4.0 14:17:36 10° S 14:21:58 50° ESE 14:26:19 10° NE
Cosmos 1980 Rocket 2.6 14:20:34 38° W 14:22:22 53° SSW 14:28:03 10° SE
Meteor 1-31 Rocket 4.0 14:24:36 30° SW 14:24:36 30° SW 14:26:46 10° SSW
Cosmos 2292 Rocket 4.3 14:19:20 10° S 14:22:57 51° ESE 14:27:31 10° NNE
Cosmos 2034 Rocket 4.0 14:20:37 38° NW 14:23:01 63° WSW 14:29:17 10° SSE
CZ-4B DEB 4.3 14:18:07 10° NNE 14:23:46 84° ESE 14:29:27 10° SSW
Cosmos 1655 Rocket 4.1 14:17:27 10° SSW 14:23:58 84° ESE 14:30:27 10° NNE
Cosmos 1782 Rocket 4.4 14:20:22 14° N 14:24:07 51° E 14:28:34 10° SSE
CZ-2C R/B 3.2 14:26:05 34° WSW 14:26:05 34° WSW 14:29:58 10° SSW
USA 229 DEB 4.1 14:26:48 36° WNW 14:27:22 36° NW 14:33:21 10° N
USA 229 4.1 14:26:50 36° WNW 14:27:30 37° NW 14:33:29 10° N
ATLAS CENTAUR R/B 1.6 14:27:00 51° NNW 14:27:51 66° NE 14:32:17 10° ESE
Cosmos 2333 Rocket 3.7 14:24:22 10° N 14:29:32 34° ENE 14:34:45 10° SE
Cosmos 1378 4.3 14:26:57 10° SSW 14:29:13 31° SW 14:29:13 31° SW
H-2A R/B 2.7 14:31:39 45° WSW 14:31:39 45° WSW 14:34:58 10° SSW
PSLV R/B 3.6 14:29:54 10° NNE 14:33:46 81° WNW 14:37:37 10° SSW
Cosmos 1184 Rocket 2.7 14:34:24 76° SW 14:34:24 76° SW 14:37:42 10° SSE
Cosmos 2297 4.1 14:30:48 10° SW 14:36:37 67° SE 14:42:20 10° ENE
NOSS 3-4 (A) 4.0 14:32:00 26° W 14:36:47 77° S 14:43:56 10° E
NOSS 3-4 (C) 4.0 14:32:07 26° W 14:36:53 77° S 14:44:03 10° E
ERBS 4.3 14:36:24 19° NNE 14:36:57 20° NNE 14:39:30 10° ENE
NOSS 3-1 (A) 3.9 14:35:10 31° W 14:37:19 39° NW 14:42:44 10° NNE
Meteor PRIRODA 3.7 14:37:13 56° NW 14:37:34 59° WNW 14:41:24 10° SSW
MOS 1-B 4.3 14:31:58 10° NNE 14:37:49 78° WNW 14:43:44 10° SSW
Cosmos 2278 Rocket 2.1 14:32:29 10° SW 14:38:11 66° NW 14:43:50 10° NNE
GEOS 3 Rocket 3.8 14:33:09 10° E 14:38:24 70° SSE 14:41:50 22° WSW
Cosmos 304 Rocket 4.3 14:34:58 10° SSW 14:39:53 62° SE 14:44:44 10° NE
Cosmos 1420 Rocket 4.0 14:35:45 10° SW 14:40:59 59° WNW 14:46:14 10° NNE
Cosmos 1536 Rocket 4.0 14:36:37 10° SSW 14:41:08 65° ESE 14:45:38 10° NNE
SJ-12 3.8 14:38:25 10° N 14:42:32 65° WNW 14:46:43 10° SSW
Cosmos 1461 3.5 14:41:08 32° WSW 14:42:52 53° S 14:46:59 10° ESE
Cosmos 2278 4.5 14:46:26 26° WSW 14:49:08 41° SSW 14:54:38 10° SE
Cosmos 1908 Rocket 3.5 14:47:55 30° NNW 14:50:03 72° WSW 14:54:35 10° SSE
CZ-4B R/B 3.3 14:44:23 10° NNE 14:50:08 87° ESE 14:55:50 10° SSW
Cosmos 1943 Rocket 3.0 14:44:34 10° SW 14:50:11 51° SSE 14:55:44 10° ENE
Meteor 2-19 Rocket 4.5 14:44:04 10° SSW 14:50:17 85° ESE 14:56:25 10° NNE
Cosmos 1733 Rocket 3.7 14:50:10 36° W 14:50:59 39° WSW 14:55:16 10° S
Cosmos 2056 Rocket 4.1 14:46:54 10° SW 14:51:47 34° WNW 14:56:40 10° NNW
Cosmos 2279 Rocket 4.1 14:48:53 10° N 14:55:13 84° ENE 15:01:36 10° SSE
USA 215 4.2 14:50:35 10° N 14:55:55 25° NW 14:56:52 25° WNW
Envisat 3.9 14:53:48 10° NE 14:58:48 53° ESE 15:03:51 10° SSW
Cosmos 2369 Rocket 3.1 14:53:17 10° SW 14:58:49 49° SSE 15:04:21 10° ENE
Cosmos 1536 3.5 14:59:48 33° W 15:00:25 35° WSW 15:04:16 10° S
Meteor 1-11 Rocket 4.1 14:57:44 27° WNW 15:00:34 48° WSW 15:06:09 10° SSE
Cosmos 405 Rocket 3.3 15:01:19 35° WNW 15:02:28 44° WSW 15:06:30 10° S
Meteor 1-28 Rocket 3.1 14:58:44 10° SSE 15:02:35 84° WSW 15:05:12 19° NNW
Cosmos 1707 2.8 15:01:03 10° SSW 15:05:03 85° E 15:08:59 10° NNE
H-2A R/B 3.1 15:01:19 10° NNE 15:05:16 70° ESE 15:09:13 10° SSW
ATLAS 2AS CENTAUR R/B 2.6 15:01:33 21° WSW 15:06:02 76° S 15:12:44 10° E
RESURS DK-1 3.8 15:05:14 19° SW 15:07:17 28° SSW 15:10:58 10° SE
ISS -1.5 15:09:31 14° NNW 15:09:31 14° NNW 15:11:09 10° NNE
Cosmos 2098 Rocket 4.2 15:03:02 10° SSW 15:09:58 72° ESE 15:15:35 10° NNE
Cosmos 371 Rocket 3.3 15:06:14 10° SW 15:11:07 57° WNW 15:15:55 10° NNE
Cosmos 1484 Rocket 3.9 15:12:26 25° WSW 15:12:26 25° WSW 15:15:02 10° SSW
SL-16 R/B 3.0 15:05:52 10° SSE 15:11:48 44° SW 15:15:37 21° WNW
Cosmos 1331 Rocket 4.1 15:06:26 10° SW 15:11:52 87° SE 15:17:15 10° NE
Cosmos 2219 Rocket 2.9 15:08:07 10° NNW 15:13:38 55° ENE 15:19:13 10° SE
Cosmos 1242 Rocket 2.6 15:10:30 10° SSW 15:14:18 90° ESE 15:18:01 10° NNE
CZ-4B R/B 3.9 15:14:54 27° WNW 15:15:21 27° W 15:19:02 10° SSW
Cosmos 1271 Rocket 2.9 15:11:39 10° SSW 15:15:47 83° ESE 15:19:53 10° NNE
Cosmos 923 Rocket 4.0 15:13:17 20° NW 15:16:59 70° SW 15:22:23 10° SSE
Cosmos 1300 Rocket 4.2 15:13:25 10° N 15:17:50 60° E 15:22:20 10° SSE
Cosmos 1975 Rocket 3.8 15:17:09 10° SSW 15:21:01 30° W 15:23:48 16° NW
H-2A R/B 2.2 15:17:33 10° SSE 15:22:11 69° WSW 15:26:43 10° NNW
CZ-4C R/B 2.7 15:16:43 18° NW 15:22:31 79° NNE 15:28:46 10° ESE
Cosmos 2237 4.2 15:18:09 18° NW 15:22:33 79° SW 15:28:23 10° SE
Okean 2 Rocket 3.3 15:20:59 10° N 15:25:34 78° ENE 15:30:10 10° SSE
Sich 1 Rocket 3.6 15:21:25 10° NNW 15:26:01 76° WSW 15:30:43 10° SSE
Cosmos 2151 Rocket 4.2 15:22:19 10° N 15:26:48 62° E 15:31:22 10° SSE
Cosmos 1452 Rocket 3.9 15:22:25 10° SW 15:27:24 41° WNW 15:32:21 10° N
CZ-4C R/B 3.2 15:25:22 10° SSE 15:29:02 56° WSW 15:31:57 14° NW
Okean 2 4.5 15:25:36 10° SSW 15:29:08 25° W 15:30:58 19° NW
SAR-Lupe-4 3.6 15:25:44 10° SSE 15:29:27 89° WSW 15:33:08 10° NNW
Cosmos 2322 3.8 15:26:20 10° NW 15:32:02 86° NE 15:37:50 10° SE
Okean O Rocket 1.7 15:27:44 10° N 15:32:11 54° WNW 15:36:40 10° SSW
COSMOS 2428 3.1 15:27:27 10° NNW 15:33:08 65° NE 15:38:52 10° SE
SL-08 R/B 3.6 15:28:58 10° SSE 15:33:30 47° WSW 15:37:27 13° NW
Cosmos 1680 Rocket 3.6 15:29:44 14° NW 15:34:20 67° SW 15:39:45 10° SSE
Cosmos 1544 3.1 15:31:00 10° NNW 15:34:46 69° WSW 15:38:34 10° SSE
COSMOS 2455 3.5 15:29:32 12° WSW 15:35:02 53° S 15:40:59 10° E
AQUARIUS 4.2 15:31:49 10° NNE 15:36:24 85° WNW 15:41:03 10° SSW
Cosmos 2333 4.3 15:30:40 10° NW 15:36:28 86° NE 15:42:22 10° SE
NOAA 6 4.3 15:33:09 10° N 15:38:12 47° W 15:43:19 10° SSW
Cosmos 1697 Rocket 3.9 15:33:55 13° WSW 15:38:23 33° S 15:43:31 10° ESE
Cosmos 1975 3.0 15:35:04 10° NNW 15:39:10 55° WSW 15:43:19 10° S
Cosmos 1666 4.2 15:38:54 18° WSW 15:40:04 21° SW 15:43:07 10° S
Cosmos 1110 Rocket 4.0 15:36:14 10° SW 15:41:30 62° WNW 15:46:46 10° NNE
Cosmos 332 Rocket 4.1 15:37:47 10° SW 15:42:25 44° WNW 15:47:01 10° N
CZ-4 R/B 2.8 15:38:42 10° NE 15:42:47 44° ESE 15:46:53 10° S
YAOGAN 1 4.1 15:39:06 10° NE 15:43:13 40° ESE 15:47:22 10° S
Cosmos 1892 Rocket 4.3 15:38:57 10° S 15:43:22 58° ESE 15:47:43 10° NNE
Cosmos 1743 3.5 15:40:54 17° WNW 15:43:23 33° WSW 15:47:01 10° S
SAR-Lupe-1 4.1 15:43:08 10° SSE 15:46:49 70° WSW 15:50:28 10° NNW
CORIOLIS 4.1 15:42:38 10° NNE 15:48:03 77° WNW 15:53:32 10° SSW
CZ-4B R/B 1.3 15:45:04 10° SSE 15:48:23 87° WSW 15:51:46 10° NNW
ALOS 3.4 15:46:11 10° NW 15:49:56 23° W 15:53:44 10° SW
Meteor 2-5 Rocket 4.0 15:44:31 10° SSW 15:50:31 81° ESE 15:56:32 10° NNE
Aureole 2 Rocket 2.8 15:48:04 10° SSW 15:50:43 47° SE 15:53:23 10° NE
Cosmos 2266 Rocket 4.3 15:45:37 10° SSW 15:51:27 45° W 15:57:20 10° NNW
Cosmos 2084 4.1 15:49:00 10° NW 15:53:11 54° NNE 15:57:25 10° ESE
ERS-2 3.4 15:50:19 10° S 15:53:25 25° SW 15:55:35 15° W
YAOGAN 6 2.6 15:50:29 10° NNE 15:54:05 88° ESE 15:57:44 10° SSW
SL-16 R/B 2.8 15:50:50 15° W 15:55:25 44° SSW 16:00:56 10° SE
IRS-1C Rocket 4.1 15:50:56 10° NNE 15:56:15 73° WNW 16:01:39 10° SSW
SMAP 3.1 15:52:09 10° N 15:56:49 59° WNW 16:01:33 10° SSW
Cosmos 1356 3.7 15:53:47 10° N 15:57:18 76° ENE 16:00:52 10° SSE
Cosmos 2360 Rocket 2.4 15:53:50 12° WNW 15:59:08 58° SW 16:04:50 10° SE
Cosmos 1025 Rocket 3.7 15:55:27 10° SSW 15:59:29 34° W 16:03:29 10° NNW
Cosmos 2084 Rocket 4.2 15:56:22 13° WSW 15:59:41 34° NW 16:03:33 10° NNE
APEX 4.3 15:57:34 10° SW 16:00:26 34° SSE 16:03:45 10° E
Helios 1A Rocket 3.2 15:57:10 10° N 16:01:13 47° W 16:05:21 10° SSW
Cosmos 1782 Rocket 4.3 15:58:04 10° NW 16:02:13 35° WSW 16:06:27 10° S
Cosmos 2322 Rocket 2.8 15:59:05 13° W 16:03:56 44° SSW 16:09:26 10° SE
COBE Rocket 4.3 16:00:41 10° S 16:05:48 50° WSW 16:10:48 10° NW
ATLAS CENTAUR R/B 1.7 16:03:11 13° W 16:06:55 62° SSW 16:11:28 10° ESE
Cosmos 2292 Rocket 4.4 16:03:45 10° SSW 16:07:00 27° W 16:10:58 10° NNW
Landsat 5 4.0 16:03:04 10° S 16:07:15 41° WSW 16:11:14 10° NW
H-2A R/B 4.5 16:08:14 10° WSW 16:08:14 10° WSW 16:08:18 10° WSW
Cosmos 1980 Rocket 3.3 16:02:21 10° WSW 16:07:32 33° S 16:12:44 10° ESE
Meteor 1-12 Rocket 4.3 16:03:21 10° NNW 16:09:05 82° WSW 16:14:53 10° SSE
Cosmos 1992 Rocket 4.4 16:04:15 10° SSW 16:09:35 70° SE 16:14:53 10° NE
ERBS 3.5 16:09:31 10° WNW 16:12:41 36° N 16:15:52 10° ENE
Okean 1 Rocket 3.4 16:08:31 10° N 16:13:05 77° E 16:17:41 10° SSE
SL-24 DEB 4.3 16:08:32 10° N 16:13:21 82° W 16:18:12 10° S
Cosmos 2333 Rocket 2.3 16:07:37 10° NW 16:13:26 81° SW 16:19:20 10° SE
Resurs 01 Rocket 4.3 16:10:55 10° ESE 16:13:34 15° SE 16:16:12 10° S
Cosmos 158 Rocket 4.2 16:10:31 10° WNW 16:15:19 49° SW 16:20:13 10° SSE
GEOS 3 Rocket 3.7 16:11:19 10° NE 16:16:34 65° NW 16:21:46 10° WSW
Okean-O 2.6 16:12:25 10° NNE 16:16:56 79° WNW 16:21:30 10° SSW
Cosmos 1302 Rocket 4.1 16:12:32 10° SW 16:17:47 63° WNW 16:22:58 10° NNE
Cosmos 2112 Rocket 4.5 16:13:31 10° WNW 16:18:45 47° SW 16:24:02 10° SSE
Cosmos 304 Rocket 4.4 16:15:29 10° SW 16:19:58 36° WNW 16:24:24 10° N
CZ-2D R/B 4.0 16:16:07 10° NNE 16:20:02 61° ESE 16:24:00 10° SSW
Cosmos 2297 4.1 16:15:13 10° SW 16:20:41 44° WNW 16:26:04 10° N
Cosmos 2237 Rocket 2.8 16:15:04 10° NNW 16:20:44 64° ENE 16:26:26 10° SE
Molniya-3 3.1 16:17:42 10° WSW 16:21:21 59° NNW 16:23:23 10° NE
Cosmos 2278 Rocket 3.4 16:17:22 10° WSW 16:21:22 20° WNW 16:25:21 10° NW
SL-14 R/B 3.6 16:17:28 10° SSW 16:21:28 71° ESE 16:25:25 10° NNE
Cosmos 1461 3.0 16:18:01 10° WSW 16:22:21 76° SSE 16:26:29 10° ENE
Cosmos 1626 2.5 16:19:00 10° SSW 16:22:51 70° ESE 16:26:38 10° NNE
USA 186 4.4 16:23:12 10° E 16:24:55 16° SE 16:26:43 10° SSE
Okean 1-7 Rocket 3.7 16:22:47 10° SSW 16:27:29 78° WNW 16:32:07 10° N
NOSS 3-4 (A) 3.9 16:20:26 10° WSW 16:28:07 84° NNW 16:35:00 10° ENE
Cosmos 1766 4.3 16:24:15 10° N 16:28:07 52° E 16:32:04 10° SSE
GP-B 3.2 16:23:39 10° NNW 16:28:09 63° W 16:32:42 10° S
NOSS 3-4 (C) 3.9 16:20:32 10° WSW 16:28:13 84° NNW 16:35:06 10° ENE
CZ-4B R/B 4.1 16:26:33 10° NNW 16:31:22 27° W 16:36:10 10° SSW
Cosmos 1674 3.0 16:28:06 10° SSW 16:31:53 46° W 16:35:39 10° N
Cosmos 1943 Rocket 2.3 16:28:31 10° SW 16:34:12 64° WNW 16:39:47 10° NNE
